Location: Wyalusing
(42.9440°N, 91.1410°W)
Time: 03:21:30
(UTC-06:00)

Amateur Radio Satellites - All Passes

Search period start: 16 January 2018 02:51
Search period end: 17 January 2018 02:51
Location: Wyalusing, 42.9440°N, 91.1410°W

Satellite Date Start Highest point End Downlink Frequencies (MHz)
Time Altitude Azimuth
MOZHAYETS 4 16 Jan 02:58:32 03:02:54 42° 262° (W) 03:07:19
NO-84 16 Jan 03:03:07 03:04:24 12° 232° (SW) 03:05:41 435.350 FM
AO-91 16 Jan 03:08:06 03:09:59 13° 295° (WNW) 03:11:56 145.960
ITUPSAT 1 16 Jan 03:10:55 03:15:34 54° 259° (W) 03:20:16 437.325
Gurwin Techsat 1B 16 Jan 03:15:04 03:19:17 24° 297° (WNW) 03:23:28 435.225
ITAMSAT 1 16 Jan 03:28:10 03:33:00 38° 98° (E) 03:37:49 435.822/435.867
KKS-1 16 Jan 03:32:56 03:36:02 19° 64° (ENE) 03:39:09 437.445
AO-7 16 Jan 03:37:31 03:45:53 68° 105° (ESE) 03:54:10 .
ISS 16 Jan 03:39:19 03:42:14 29° 20° (NNE) 03:45:09 437.550
nSIGHT-1 16 Jan 03:48:48 03:51:49 39° 25° (NNE) 03:54:51 .
BEESAT 16 Jan 03:56:02 03:59:30 20° 267° (W) 04:02:59 436.000
STARS 16 Jan 04:05:25 04:08:09 17° 63° (ENE) 04:10:55 437.465
DOVE 4 16 Jan 04:11:21 04:14:51 24° 95° (E) 04:18:28 437.250
CUBESAT XI-V 16 Jan 04:24:33 04:28:18 23° 266° (W) 04:32:03 437.345
M-CUBED/EXP-1 PRIME 16 Jan 04:34:14 04:37:21 30° 102° (ESE) 04:40:18 437.505
ITAMSAT 1 16 Jan 05:07:55 05:12:19 28° 295° (WNW) 05:16:42 435.822/435.867
KKS-1 16 Jan 05:08:04 05:12:16 44° 261° (W) 05:16:31 437.445
STRAND 1 16 Jan 05:09:19 05:11:39 13° 58° (ENE) 05:13:59 437.568
XW-2F 16 Jan 05:14:44 05:16:47 14° 92° (E) 05:18:48 145.980 - 146.000
ISS 16 Jan 05:15:39 05:18:51 52° 218° (SW) 05:22:03 437.550
XW-2D 16 Jan 05:19:00 05:21:39 18° 93° (E) 05:24:16 145.860 - 145.880
KAITUO 1B 16 Jan 05:23:01 05:24:51 13° 91° (E) 05:26:41 145.475/437.950
nSIGHT-1 16 Jan 05:25:07 05:27:54 28° 223° (SW) 05:30:42 .
AO-7 16 Jan 05:31:02 05:38:02 31° 305° (NW) 05:45:02 .
XW-2B 16 Jan 05:35:54 05:39:10 27° 96° (E) 05:42:22 145.730 - 145.750
HO-68 16 Jan 05:38:15 05:42:27 16° 89° (E) 05:46:37 435.675
STARS 16 Jan 05:39:51 05:44:05 50° 260° (W) 05:48:21 437.465
NUDT-PHONESAT 16 Jan 05:43:26 05:46:21 22° 94° (E) 05:49:14 437.300
DOVE 4 16 Jan 05:48:51 05:52:33 30° 290° (WNW) 05:56:22 437.250
LilacSat-2 16 Jan 05:56:06 05:59:51 54° 100° (E) 06:03:32 437.200
CUTE-I 16 Jan 06:00:56 06:06:00 42° 99° (E) 06:11:01 437.470
FO-29 16 Jan 06:03:09 06:08:27 24° 63° (ENE) 06:13:18 435.910
XW-2C 16 Jan 06:05:29 06:09:15 65° 101° (E) 06:12:58 145.795 - 145.815
M-CUBED/EXP-1 PRIME 16 Jan 06:09:17 06:11:30 16° 301° (WNW) 06:13:39 437.505
SEEDS 16 Jan 06:11:13 06:12:49 12° 89° (E) 06:14:24 437.485
CUTE 1.7 + AOD 2 16 Jan 06:11:28 06:14:40 21° 93° (E) 06:17:51 437.475
SO-50 16 Jan 06:37:08 06:41:30 61° 121° (ESE) 06:45:59 436.795
FALCONSAT 3 16 Jan 06:37:12 06:39:37 17° 163° (SSE) 06:42:02 435.103
STRAND 1 16 Jan 06:45:00 06:50:06 87° 258° (WSW) 06:55:13 437.568
XW-2F 16 Jan 06:47:32 06:51:04 39° 288° (WNW) 06:54:33 145.980 - 146.000
XW-2D 16 Jan 06:52:31 06:55:52 31° 290° (WNW) 06:59:12 145.860 - 145.880
KAITUO 1B 16 Jan 06:55:31 06:59:02 41° 287° (WNW) 07:02:30 145.475/437.950
CUBEBUG 2 16 Jan 07:01:40 07:06:17 50° 99° (E) 07:10:53 437.445
XW-2B 16 Jan 07:10:16 07:13:10 21° 292° (WNW) 07:16:03 145.730 - 145.750
NUDT-PHONESAT 16 Jan 07:17:05 07:20:08 25° 291° (WNW) 07:23:08 437.300
UWE-3 16 Jan 07:18:42 07:23:10 42° 98° (E) 07:27:34 435.000/436.395/437.385
HO-68 16 Jan 07:23:52 07:31:05 89° 106° (ESE) 07:38:15 435.675
XW-2A 16 Jan 07:28:51 07:31:49 28° 97° (E) 07:34:43 145.665 - 145.685
LilacSat-2 16 Jan 07:32:08 07:33:37 12° 297° (WNW) 07:35:07 437.200
RS-15 16 Jan 07:35:48 07:45:56 32° 103° (ESE) 07:55:59 29.354- 29.394
CUTE-I 16 Jan 07:41:26 07:45:48 27° 296° (WNW) 07:50:10 437.470
XW-2C 16 Jan 07:42:35 07:42:51 10° 298° (WNW) 07:43:07 145.795 - 145.815
AAUSAT CUBESAT 2 16 Jan 07:43:12 07:47:14 54° 99° (E) 07:51:15 437.432
SEEDS 16 Jan 07:44:46 07:48:52 59° 286° (WNW) 07:52:57 437.485
FO-29 16 Jan 07:45:58 07:53:06 67° 258° (WSW) 07:59:27 435.910
CUTE 1.7 + AOD 2 16 Jan 07:46:45 07:50:35 34° 290° (WNW) 07:54:22 437.475
ZACube-1 16 Jan 07:54:44 07:59:15 52° 99° (E) 08:03:40 437.345
AO-73 16 Jan 08:04:56 08:09:29 59° 100° (E) 08:13:55 145.935
FALCONSAT 3 16 Jan 08:15:02 08:18:05 25° 179° (S) 08:21:09 435.103
YUBILEINY 16 Jan 08:16:00 08:17:30 10° 51° (NE) 08:18:59 435.215
SO-50 16 Jan 08:19:00 08:22:22 20° 320° (NW) 08:25:46 436.795
TIGRISAT 16 Jan 08:29:14 08:33:16 38° 70° (ENE) 08:37:27 435.000
CUBEBUG 2 16 Jan 08:39:08 08:42:30 20° 295° (WNW) 08:45:53 437.445
UNISAT 6 16 Jan 08:42:44 08:47:02 59° 72° (ENE) 08:51:27 437.425
Oscar 11 16 Jan 08:44:23 08:48:45 84° 284° (WNW) 08:53:03 .
UWE-3 16 Jan 08:55:44 08:59:18 22° 294° (WNW) 09:02:51 435.000/436.395/437.385
PRISM 16 Jan 08:59:36 09:02:38 21° 66° (ENE) 09:05:40 437.425
XW-2A 16 Jan 09:02:05 09:04:16 16° 293° (WNW) 09:06:25 145.665 - 145.685
DELFI C3 16 Jan 09:11:02 09:14:38 34° 97° (E) 09:18:12 145.870
HO-68 16 Jan 09:13:04 09:17:53 20° 306° (NW) 09:22:42 435.675
AAUSAT CUBESAT 2 16 Jan 09:20:07 09:22:13 14° 297° (WNW) 09:24:19 437.432
Max Valier Satellite 16 Jan 09:23:10 09:26:30 30° 97° (E) 09:29:47 145.860
PCSat 16 Jan 09:25:40 09:27:19 11° 102° (ESE) 09:28:59 145.827
ZACube-1 16 Jan 09:32:04 09:35:05 18° 296° (WNW) 09:38:04 437.345
FO-29 16 Jan 09:38:35 09:38:59 10° 273° (W) 09:39:22 435.910
AO-73 16 Jan 09:42:29 09:45:11 16° 297° (WNW) 09:47:53 145.935
RS-15 16 Jan 09:44:55 09:57:18 80° 306° (NW) 10:09:31 29.354- 29.394
FALCONSAT 3 16 Jan 09:53:59 09:56:36 19° 194° (SSW) 09:59:13 435.103
EO-88 16 Jan 09:54:38 09:58:11 48° 100° (E) 10:01:41 145.990 - 145.960
TIGRISAT 16 Jan 10:06:51 10:10:07 20° 268° (W) 10:13:26 435.000
YUBILEINY 16 Jan 10:08:14 10:16:46 53° 76° (ENE) 10:25:12 435.215
POLYITAN 1 16 Jan 10:11:03 10:13:57 18° 65° (ENE) 10:16:52 437.675
UNISAT 6 16 Jan 10:22:00 10:24:09 13° 271° (W) 10:26:20 437.425
NANOSAT C BR1 16 Jan 10:31:09 10:34:37 25° 67° (ENE) 10:38:06 145.865
PRISM 16 Jan 10:33:58 10:37:41 34° 262° (W) 10:41:24 437.425
AIST 2D 16 Jan 10:34:58 10:38:30 75° 259° (W) 10:42:02 435.315
QB50P2 16 Jan 10:39:01 10:42:56 39° 71° (ENE) 10:46:54 145.880/145.840
DELFI C3 16 Jan 10:46:22 10:49:07 19° 293° (WNW) 10:51:53 145.870
O/OREOS (USA 219) 16 Jan 10:56:24 11:00:50 59° 64° (ENE) 11:05:15 437.305
Max Valier Satellite 16 Jan 10:57:27 11:00:05 19° 293° (WNW) 11:02:42 145.860
BEESAT 3 16 Jan 11:01:52 11:05:51 82° 120° (ESE) 11:09:51 437.485
PCSat 16 Jan 11:04:25 11:09:50 85° 119° (ESE) 11:15:17 145.827
BUGSAT 1 16 Jan 11:06:46 11:08:31 13° 62° (ENE) 11:10:17 437.445
EO-79 16 Jan 11:11:34 11:15:46 81° 75° (ENE) 11:20:02 145.935-145.965
DUCHIFAT 1 16 Jan 11:17:09 11:21:18 70° 75° (ENE) 11:25:31 145.980
Gurwin Techsat 1B 16 Jan 11:20:34 11:22:35 12° 56° (ENE) 11:24:37 435.225
EO-88 16 Jan 11:29:54 11:31:22 12° 296° (WNW) 11:32:50 145.990 - 145.960
LO-87 16 Jan 11:30:45 11:34:24 86° 284° (WNW) 11:38:01 145.935 - 145.965
BEESAT 2 16 Jan 11:36:58 11:40:50 50° 119° (ESE) 11:44:46 435.950
POLYITAN 1 16 Jan 11:45:23 11:49:24 42° 262° (W) 11:53:28 437.675
ESTCUBE 1 16 Jan 11:46:01 11:50:32 88° 292° (WNW) 11:55:01 437.505/2401.250
RS-15 16 Jan 12:01:16 12:12:00 33° 333° (NNW) 12:22:30 29.354- 29.394
YUBILEINY 16 Jan 12:05:36 12:13:10 35° 276° (W) 12:20:43 435.215
NANOSAT C BR1 16 Jan 12:06:34 12:10:12 28° 264° (W) 12:13:53 145.865
VELOX 1 16 Jan 12:09:27 12:12:49 21° 94° (E) 12:16:12 145.980
Oscar 19 16 Jan 12:12:56 12:17:50 44° 69° (ENE) 12:22:46 437.125/150
QB50P2 16 Jan 12:15:54 12:18:52 19° 267° (W) 12:21:52 145.880/145.840
AO-91 16 Jan 12:28:43 12:32:00 52° 74° (ENE) 12:35:19 145.960
O/OREOS (USA 219) 16 Jan 12:37:28 12:39:42 14° 261° (W) 12:41:55 437.305
BUGSAT 1 16 Jan 12:39:20 12:43:20 61° 259° (W) 12:47:25 437.445
BEESAT 3 16 Jan 12:41:44 12:43:53 14° 321° (NW) 12:46:04 437.485
SPROUT 16 Jan 12:46:09 12:50:28 81° 285° (WNW) 12:54:46 437.525
AO-7 16 Jan 12:47:25 12:53:41 24° 51° (NE) 12:59:58 .
PCSat 16 Jan 12:50:08 12:53:56 19° 319° (NW) 12:57:44 145.827
Gurwin Techsat 1B 16 Jan 12:56:22 13:01:40 82° 75° (ENE) 13:07:01 435.225
DUCHIFAT 1 16 Jan 12:56:54 12:57:26 10° 271° (W) 12:57:58 145.980
BEESAT 2 16 Jan 13:15:49 13:18:49 20° 317° (NW) 13:21:50 435.950
AO-85 16 Jan 13:23:57 13:27:55 87° 305° (NW) 13:32:11 145.980
ESTCUBE 1 16 Jan 13:26:13 13:26:35 10° 301° (WNW) 13:26:58 437.505/2401.250
50 SAT 16 Jan 13:27:27 13:29:55 21° 96° (E) 13:32:23 437.505
SO-50 16 Jan 13:28:11 13:30:38 14° 34° (NE) 13:33:06 436.795
VELOX 1 16 Jan 13:45:20 13:49:21 36° 291° (WNW) 13:53:21 145.980
Oscar 19 16 Jan 13:53:10 13:57:19 24° 266° (W) 14:01:30 437.125/150
UKube-1 16 Jan 14:16:34 14:20:49 59° 102° (ESE) 14:25:03 .
DX 1 16 Jan 14:17:21 14:21:42 82° 285° (WNW) 14:26:02 434.975-435.025
BEESAT 16 Jan 14:19:05 14:19:48 10° 88° (E) 14:20:31 436.000
RS-15 16 Jan 14:19:57 14:29:31 26° 8° (N) 14:38:45 29.354- 29.394
AO-7 16 Jan 14:37:06 14:45:28 87° 251° (WSW) 14:53:54 .
Gurwin Techsat 1B 16 Jan 14:39:54 14:42:14 13° 271° (W) 14:44:35 435.225
ITAMSAT 1 16 Jan 14:46:51 14:51:57 65° 72° (ENE) 14:57:06 435.822/435.867
MOZHAYETS 4 16 Jan 14:52:19 14:56:43 41° 98° (E) 15:01:04
50 SAT 16 Jan 14:59:20 15:01:30 18° 292° (WNW) 15:03:40 437.505
AO-85 16 Jan 15:06:55 15:09:03 14° 325° (NW) 15:11:18 145.980
SO-50 16 Jan 15:07:14 15:11:56 70° 54° (NE) 15:16:41 436.795
ITUPSAT 1 16 Jan 15:10:25 15:14:50 35° 97° (E) 15:19:13 437.325
DOVE 4 16 Jan 15:17:47 15:21:29 27° 69° (ENE) 15:25:05 437.250
M-CUBED/EXP-1 PRIME 16 Jan 15:19:08 15:23:30 56° 69° (ENE) 15:27:38 437.505
CUTE-I 16 Jan 15:48:08 15:49:41 11° 56° (NE) 15:51:14 437.470
BEESAT 16 Jan 15:53:21 15:58:11 86° 282° (WNW) 16:02:59 436.000
UKube-1 16 Jan 15:54:02 15:56:20 14° 298° (WNW) 15:58:39 .
XW-2D 16 Jan 16:02:25 16:03:38 11° 63° (ENE) 16:04:51 145.860 - 145.880
HO-68 16 Jan 16:09:30 16:13:23 16° 51° (NE) 16:17:17 435.675
XW-2B 16 Jan 16:18:27 16:20:53 16° 66° (ENE) 16:23:19 145.730 - 145.750
CUBESAT XI-V 16 Jan 16:18:49 16:23:29 82° 103° (ESE) 16:28:05 437.345
NUDT-PHONESAT 16 Jan 16:24:14 16:25:53 13° 64° (ENE) 16:27:31 437.300
ITAMSAT 1 16 Jan 16:28:45 16:31:52 16° 269° (W) 16:34:59 435.822/435.867
MOZHAYETS 4 16 Jan 16:30:03 16:33:35 22° 295° (WNW) 16:37:06
AO-7 16 Jan 16:34:02 16:39:18 18° 270° (W) 16:44:38 .
RS-15 16 Jan 16:34:28 16:45:53 49° 41° (NE) 16:56:40 29.354- 29.394
LilacSat-2 16 Jan 16:38:35 16:41:59 30° 70° (ENE) 16:45:24 437.200
XW-2C 16 Jan 16:47:11 16:50:41 34° 71° (ENE) 16:54:11 145.795 - 145.815
ITUPSAT 1 16 Jan 16:48:29 16:52:30 27° 294° (WNW) 16:56:31 437.325
SO-50 16 Jan 16:49:13 16:51:52 15° 251° (WSW) 16:54:30 436.795
DOVE 4 16 Jan 16:55:25 16:59:08 26° 264° (W) 17:02:44 437.250
M-CUBED/EXP-1 PRIME 16 Jan 16:55:28 16:58:04 15° 262° (W) 17:00:35 437.505
KKS-1 16 Jan 16:57:54 17:01:51 31° 97° (E) 17:05:48 437.445
SEEDS 16 Jan 17:04:59 17:05:40 10° 61° (ENE) 17:06:23 437.485
CUTE 1.7 + AOD 2 16 Jan 17:05:13 17:08:05 18° 65° (ENE) 17:10:57 437.475
CUTE-I 16 Jan 17:23:30 17:28:49 76° 73° (ENE) 17:34:08 437.470
XW-2F 16 Jan 17:28:09 17:31:57 80° 258° (WSW) 17:35:47 145.980 - 146.000
STARS 16 Jan 17:28:20 17:32:01 26° 95° (E) 17:35:42 437.465
XW-2D 16 Jan 17:33:29 17:37:17 60° 259° (W) 17:41:05 145.860 - 145.880
BEESAT 16 Jan 17:33:51 17:35:10 11° 302° (WNW) 17:36:29 436.000
KAITUO 1B 16 Jan 17:35:14 17:39:01 86° 257° (WSW) 17:42:49 145.475/437.950
XW-2B 16 Jan 17:51:09 17:54:44 38° 262° (W) 17:58:22 145.730 - 145.750
HO-68 16 Jan 17:52:48 17:59:55 73° 71° (ENE) 18:07:03 435.675
NUDT-PHONESAT 16 Jan 17:55:38 17:59:16 50° 260° (W) 18:02:56 437.300
CUBESAT XI-V 16 Jan 17:58:28 18:00:09 12° 300° (WNW) 18:01:50 437.345
CUBEBUG 2 16 Jan 18:00:25 18:04:29 42° 71° (ENE) 18:08:41 437.445
XW-2A 16 Jan 18:01:54 18:03:18 12° 65° (ENE) 18:04:42 145.665 - 145.685
PCSat 16 Jan 18:09:13 18:12:37 16° 39° (NE) 18:16:00 145.827
LilacSat-2 16 Jan 18:13:23 18:16:17 20° 266° (W) 18:19:11 437.200
UWE-3 16 Jan 18:16:17 18:20:16 35° 70° (ENE) 18:24:23 435.000/436.395/437.385
NO-84 16 Jan 18:16:39 18:19:28 36° 135° (SE) 18:22:10 435.350 FM
XW-2C 16 Jan 18:22:22 18:24:57 17° 267° (W) 18:27:32 145.795 - 145.815
AAUSAT CUBESAT 2 16 Jan 18:33:42 18:37:33 39° 71° (ENE) 18:41:25 437.432
KKS-1 16 Jan 18:34:35 18:38:17 26° 293° (WNW) 18:41:59 437.445
SEEDS 16 Jan 18:36:29 18:40:42 81° 257° (WSW) 18:44:57 437.485
CUTE 1.7 + AOD 2 16 Jan 18:39:28 18:43:34 44° 262° (W) 18:47:41 437.475
RS-15 16 Jan 18:47:22 18:58:40 59° 247° (WSW) 19:09:25 29.354- 29.394
ZACube-1 16 Jan 18:50:55 18:55:04 43° 71° (ENE) 18:59:21 437.345
STRAND 1 16 Jan 18:54:52 18:59:22 30° 96° (E) 19:03:50 437.568
FO-29 16 Jan 18:57:19 18:59:15 12° 88° (E) 19:01:10 435.910
AO-73 16 Jan 19:00:42 19:04:56 48° 73° (ENE) 19:09:17 145.935
STARS 16 Jan 19:04:28 19:08:20 31° 292° (WNW) 19:12:13 437.465
CUTE-I 16 Jan 19:06:41 19:09:25 14° 271° (W) 19:12:09 437.470
BEESAT 3 16 Jan 19:17:35 19:21:28 60° 53° (NE) 19:25:17 437.485
XW-2A 16 Jan 19:32:20 19:35:36 42° 261° (W) 19:38:53 145.665 - 145.685
CUBEBUG 2 16 Jan 19:38:20 19:41:19 18° 269° (W) 19:44:23 437.445
Oscar 11 16 Jan 19:39:24 19:43:45 81° 76° (ENE) 19:48:08 .
HO-68 16 Jan 19:42:59 19:48:15 22° 269° (W) 19:53:34 435.675
PCSat 16 Jan 19:51:26 19:56:54 81° 60° (ENE) 20:02:19 145.827
UWE-3 16 Jan 19:53:24 19:56:48 22° 267° (W) 20:00:18 435.000/436.395/437.385
BEESAT 2 16 Jan 19:53:33 19:57:21 39° 50° (NE) 20:01:06 435.950
NO-84 16 Jan 19:54:19 19:56:41 22° 331° (NNW) 19:58:59 435.350 FM
DELFI C3 16 Jan 19:57:11 20:00:14 22° 68° (ENE) 20:03:18 145.870
Max Valier Satellite 16 Jan 20:03:15 20:05:41 17° 66° (ENE) 20:08:07 145.860
AAUSAT CUBESAT 2 16 Jan 20:10:18 20:13:09 18° 268° (W) 20:15:59 437.432
AO-85 16 Jan 20:13:53 20:17:19 19° 40° (NE) 20:20:54 145.980
ZACube-1 16 Jan 20:28:30 20:31:34 18° 269° (W) 20:34:41 437.345
EO-88 16 Jan 20:33:02 20:35:59 24° 69° (ENE) 20:38:58 145.990 - 145.960
STRAND 1 16 Jan 20:33:55 20:38:33 35° 293° (WNW) 20:43:09 437.568
UNISAT 6 16 Jan 20:35:03 20:37:08 13° 89° (E) 20:39:12 437.425
AO-73 16 Jan 20:38:38 20:41:27 16° 270° (W) 20:44:18 145.935
FO-29 16 Jan 20:39:48 20:45:06 77° 286° (WNW) 20:50:16 435.910
BEESAT 3 16 Jan 20:56:51 20:58:28 12° 251° (WSW) 21:00:03 437.485
RS-15 16 Jan 21:05:55 21:08:10 11° 268° (W) 21:10:26 29.354- 29.394
ESTCUBE 1 16 Jan 21:13:14 21:14:19 11° 59° (ENE) 21:15:24 437.505/2401.250
YUBILEINY 16 Jan 21:22:56 21:23:34 10° 70° (ENE) 21:24:12 435.215
DELFI C3 16 Jan 21:31:25 21:34:50 28° 264° (W) 21:38:14 145.870
BEESAT 2 16 Jan 21:31:52 21:34:48 20° 248° (WSW) 21:37:42 435.950
Max Valier Satellite 16 Jan 21:35:46 21:39:12 35° 263° (W) 21:42:41 145.860
PCSat 16 Jan 21:36:44 21:39:33 14° 257° (WSW) 21:42:22 145.827
AO-85 16 Jan 21:53:20 21:58:18 83° 237° (WSW) 22:03:33 145.980
TIGRISAT 16 Jan 21:55:35 22:00:18 78° 102° (ESE) 22:05:00 435.000
ISS 16 Jan 21:56:03 21:58:54 28° 137° (SE) 22:01:44 437.550
nSIGHT-1 16 Jan 22:01:47 22:04:49 45° 141° (SE) 22:07:53 .
EO-88 16 Jan 22:06:35 22:09:32 23° 265° (W) 22:12:29 145.990 - 145.960
LO-87 16 Jan 22:07:06 22:10:25 39° 72° (ENE) 22:13:46 145.935 - 145.965
UNISAT 6 16 Jan 22:09:36 22:14:17 70° 285° (WNW) 22:18:58 437.425
PRISM 16 Jan 22:13:57 22:17:27 27° 96° (E) 22:20:56 437.425
FO-29 16 Jan 22:28:41 22:29:14 10° 306° (NW) 22:29:47 435.910
ESTCUBE 1 16 Jan 22:45:51 22:50:23 88° 256° (WSW) 22:54:57 437.505/2401.250
EO-79 16 Jan 22:57:03 22:58:51 12° 90° (E) 23:00:38 145.935-145.965
DUCHIFAT 1 16 Jan 23:02:58 23:03:35 10° 89° (E) 23:04:12 145.980
VELOX 1 16 Jan 23:07:30 23:10:53 22° 66° (ENE) 23:14:16 145.980
YUBILEINY 16 Jan 23:09:45 23:18:21 60° 91° (E) 23:26:56 435.215
NO-84 16 Jan 23:12:29 23:13:04 10° 15° (NNE) 23:13:40 435.350 FM
POLYITAN 1 16 Jan 23:29:10 23:32:53 28° 96° (E) 23:36:34 437.675
AIST 2D 16 Jan 23:31:44 23:35:12 68° 285° (WNW) 23:38:37 435.315
ISS 16 Jan 23:32:09 23:35:16 41° 335° (NNW) 23:38:23 437.550
TIGRISAT 16 Jan 23:34:12 23:36:20 13° 299° (WNW) 23:38:28 435.000
AO-85 16 Jan 23:36:25 23:38:05 11° 253° (WSW) 23:39:46 145.980
nSIGHT-1 16 Jan 23:38:15 23:41:06 29° 339° (NNW) 23:43:56 .
SPROUT 16 Jan 23:39:40 23:43:54 83° 79° (ENE) 23:48:11 437.525
DX 1 16 Jan 23:41:18 23:42:05 10° 59° (ENE) 23:42:52 434.975-435.025
LO-87 16 Jan 23:42:20 23:43:59 13° 269° (W) 23:45:40 145.935 - 145.965
NANOSAT C BR1 16 Jan 23:49:06 23:53:08 40° 98° (E) 23:57:08 145.865
PRISM 16 Jan 23:49:17 23:52:37 25° 293° (WNW) 23:55:56 437.425
QB50P2 16 Jan 23:58:02 00:02:19 66° 102° (ESE) 00:06:33 145.880/145.840
AO-91 17 Jan 00:17:56 00:19:25 11° 92° (E) 00:20:55 145.960
BUGSAT 1 17 Jan 00:20:44 00:23:38 18° 93° (E) 00:26:33 437.445
Oscar 19 17 Jan 00:25:07 00:27:45 14° 89° (E) 00:30:22 437.125/150
EO-79 17 Jan 00:30:44 00:34:58 61° 286° (WNW) 00:39:11 145.935-145.965
DUCHIFAT 1 17 Jan 00:35:26 00:39:42 72° 285° (WNW) 00:43:56 145.980
VELOX 1 17 Jan 00:43:02 00:47:05 36° 262° (W) 00:51:10 145.980
NO-84 17 Jan 00:48:06 00:50:51 41° 35° (NE) 00:53:44 435.350 FM
POLYITAN 1 17 Jan 01:04:56 01:08:34 27° 292° (WNW) 01:12:11 437.675
YUBILEINY 17 Jan 01:07:57 01:15:37 32° 292° (WNW) 01:23:19 435.215
O/OREOS (USA 219) 17 Jan 01:09:21 01:13:47 59° 109° (ESE) 01:18:13 437.305
ISS 17 Jan 01:09:59 01:12:21 18° 354° (N) 01:14:43 437.550
UKube-1 17 Jan 01:11:24 01:15:36 55° 72° (ENE) 01:19:48 .
Gurwin Techsat 1B 17 Jan 01:12:04 01:16:41 30° 95° (E) 01:21:17 435.225
DX 1 17 Jan 01:13:15 01:17:35 85° 259° (W) 01:21:56 434.975-435.025
nSIGHT-1 17 Jan 01:15:48 01:17:59 17° 359° (N) 01:20:09 .
50 SAT 17 Jan 01:23:25 01:26:27 57° 259° (W) 01:29:31 437.505
BEESAT 17 Jan 01:25:10 01:27:52 15° 60° (ENE) 01:30:35 436.000
NANOSAT C BR1 17 Jan 01:25:29 01:28:32 19° 295° (WNW) 01:31:36 145.865
QB50P2 17 Jan 01:35:35 01:37:33 13° 298° (WNW) 01:39:30 145.880/145.840
CUBESAT XI-V 17 Jan 01:49:23 01:50:31 11° 59° (ENE) 01:51:38 437.345
AO-91 17 Jan 01:51:55 01:56:07 71° 285° (WNW) 02:00:48 145.960
MOZHAYETS 4 17 Jan 01:54:40 01:59:03 43° 71° (ENE) 02:03:28
BUGSAT 1 17 Jan 01:55:09 01:59:08 41° 289° (WNW) 02:03:07 437.445
Oscar 19 17 Jan 02:02:26 02:07:37 74° 287° (WNW) 02:12:45 437.125/150
ITUPSAT 1 17 Jan 02:17:44 02:22:16 45° 70° (ENE) 02:26:50 437.325
NO-84 17 Jan 02:25:47 02:27:49 17° 230° (SW) 02:29:55 435.350 FM
